"read_dt","SO2 (ppb)","flags","PMT voltage (V)","lamp voltage (V)","lamp intensity (Hz)","internal temp (C)","react chamber temp (C)","sample flow (l/min)","pres (mmHg)","SO2 bkg (ppb)","SO2 coefficient"
2014-08-29 00:00:00,1777E-3,5C000000,-0724,0826,12138,030.5,045.6,0.472,731.9,01.19,0.508
2014-08-29 00:01:00,1829E-3,5C000000,-0724,0826,12223,030.5,045.6,0.472,731.9,01.19,0.508
2014-08-29 00:02:00,1828E-3,5C000000,-0724,0826,12370,030.4,045.6,0.472,731.9,01.19,0.508
2014-08-29 00:03:00,1757E-3,5C000000,-0724,0826,12279,030.4,045.6,0.472,731.8,01.19,0.508
2014-08-29 00:04:00,1817E-3,5C000000,-0724,0826,12085,030.5,045.6,0.472,731.8,01.19,0.508
2014-08-29 00:05:00,1784E-3,5C000000,-0724,0827,12113,030.5,045.6,0.472,731.8,01.19,0.508
2014-08-29 00:06:00,1878E-3,5C000000,-0724,0826,12189,030.4,045.5,0.472,731.9,01.19,0.508
2014-08-29 00:07:00,1827E-3,5C000000,-0724,0825,12366,030.4,045.5,0.472,731.8,01.19,0.508
2014-08-29 00:08:00,1807E-3,5C000000,-0724,0826,12211,030.4,045.5,0.472,731.9,01.19,0.508
2014-08-29 00:09:00,1756E-3,5C000000,-0724,0826,12461,030.4,045.6,0.472,731.9,01.19,0.508
2014-08-29 00:10:00,1910E-3,5C000000,-0724,0826,12234,030.4,045.6,0.472,731.8,01.19,0.508
2014-08-29 00:11:00,1792E-3,5C000000,-0724,0825,12163,030.4,045.6,0.472,731.9,01.19,0.508
2014-08-29 00:12:00,1761E-3,5C000000,-0724,0825,12227,030.4,045.5,0.472,731.9,01.19,0.508
2014-08-29 00:13:00,1880E-3,5C000000,-0724,0827,12026,030.4,045.6,0.472,731.9,01.19,0.508
2014-08-29 00:14:00,1840E-3,5C000000,-0724,0825,12020,030.4,045.6,0.472,731.9,01.19,0.508
2014-08-29 00:15:00,1779E-3,5C000000,-0724,0825,12396,030.4,045.5,0.472,731.9,01.19,0.508
2014-08-29 00:16:00,1898E-3,5C000000,-0724,0826,12269,030.4,045.6,0.472,731.9,01.19,0.508
2014-08-29 00:17:00,1747E-3,5C000000,-0724,0826,12203,030.4,045.6,0.472,731.9,01.19,0.508
2014-08-29 00:18:00,1687E-3,5C000000,-0724,0826,12253,030.4,045.5,0.472,731.8,01.19,0.508
2014-08-29 00:19:00,1779E-3,5C000000,-0724,0826,12254,030.4,045.5,0.472,731.8,01.19,0.508
2014-08-29 00:20:00,1803E-3,5C000000,-0724,0827,12191,030.4,045.5,0.472,731.9,01.19,0.508
2014-08-29 00:21:00,1832E-3,5C000000,-0724,0826,12261,030.4,045.5,0.472,731.8,01.19,0.508
2014-08-29 00:22:00,1717E-3,5C000000,-0724,0826,12233,030.4,045.6,0.472,731.8,01.19,0.508
2014-08-29 00:23:00,1770E-3,5C000000,-0724,0826,12224,030.4,045.6,0.472,731.8,01.19,0.508
2014-08-29 00:24:00,1797E-3,5C000000,-0724,0825,12159,030.4,045.6,0.472,731.8,01.19,0.508
2014-08-29 00:25:00,1845E-3,5C000000,-0724,0827,11886,030.4,045.6,0.472,731.8,01.19,0.508
2014-08-29 00:26:00,1705E-3,5C000000,-0724,0826,12249,030.4,045.6,0.472,731.7,01.19,0.508
2014-08-29 00:27:00,1828E-3,5C000000,-0724,0827,12115,030.4,045.6,0.472,731.9,01.19,0.508
2014-08-29 00:28:00,1876E-3,5C000000,-0724,0827,12155,030.4,045.6,0.472,731.9,01.19,0.508
2014-08-29 00:29:00,1741E-3,5C000000,-0724,0827,12413,030.4,045.5,0.472,731.7,01.19,0.508
2014-08-29 00:30:00,1803E-3,5C000000,-0724,0826,12276,030.4,045.5,0.472,731.6,01.19,0.508
2014-08-29 00:31:00,1815E-3,5C000000,-0724,0826,12062,030.3,045.6,0.472,731.7,01.19,0.508
2014-08-29 00:32:00,1794E-3,5C000000,-0724,0826,12258,030.3,045.5,0.472,731.6,01.19,0.508
2014-08-29 00:33:00,1827E-3,5C000000,-0724,0825,12318,030.3,045.5,0.472,731.5,01.19,0.508
2014-08-29 00:34:00,1822E-3,5C000000,-0724,0826,12263,030.3,045.6,0.472,731.8,01.19,0.508
2014-08-29 00:35:00,1696E-3,5C000000,-0724,0826,12216,030.3,045.6,0.472,731.7,01.19,0.508
2014-08-29 00:36:00,1957E-3,5C000000,-0724,0826,12256,030.3,045.6,0.472,731.7,01.19,0.508
2014-08-29 00:37:00,1690E-3,5C000000,-0724,0826,12293,030.3,045.5,0.472,731.6,01.19,0.508
2014-08-29 00:38:00,1850E-3,5C000000,-0724,0826,12281,030.3,045.6,0.472,731.6,01.19,0.508
2014-08-29 00:39:00,1765E-3,5C000000,-0724,0826,12321,030.3,045.5,0.472,731.7,01.19,0.508
2014-08-29 00:40:00,2003E-3,5C000000,-0724,0825,12188,030.3,045.5,0.472,731.8,01.19,0.508
2014-08-29 00:41:00,1728E-3,5C000000,-0724,0825,12300,030.3,045.5,0.472,731.8,01.19,0.508
2014-08-29 00:42:00,1778E-3,5C000000,-0724,0826,12153,030.3,045.6,0.472,731.8,01.19,0.508
2014-08-29 00:43:00,1899E-3,5C000000,-0724,0826,12237,030.3,045.5,0.472,731.8,01.19,0.508
2014-08-29 00:44:00,1775E-3,5C000000,-0724,0826,12279,030.3,045.6,0.472,731.7,01.19,0.508
2014-08-29 00:45:00,1704E-3,5C000000,-0724,0825,12345,030.3,045.5,0.472,731.8,01.19,0.508
2014-08-29 00:46:00,1702E-3,5C000000,-0724,0826,12313,030.3,045.6,0.473,731.7,01.19,0.508
2014-08-29 00:47:00,1713E-3,5C000000,-0724,0826,12437,030.3,045.5,0.473,731.8,01.19,0.508
2014-08-29 00:48:00,1816E-3,5C000000,-0724,0826,12324,030.3,045.5,0.472,731.8,01.19,0.508
2014-08-29 00:49:00,1743E-3,5C000000,-0724,0826,12110,030.2,045.5,0.472,731.9,01.19,0.508
2014-08-29 00:50:00,1750E-3,5C000000,-0724,0825,12077,030.2,045.5,0.472,731.9,01.19,0.508
2014-08-29 00:51:00,1643E-3,5C000000,-0724,0825,12326,030.2,045.6,0.472,732.0,01.19,0.508
2014-08-29 00:52:00,1874E-3,5C000000,-0724,0825,12165,030.2,045.5,0.473,732.0,01.19,0.508
2014-08-29 00:53:00,1719E-3,5C000000,-0724,0826,12301,030.2,045.5,0.473,732.0,01.19,0.508
2014-08-29 00:54:00,1769E-3,5C000000,-0724,0826,12256,030.2,045.5,0.473,731.8,01.19,0.508
2014-08-29 00:55:00,1736E-3,5C000000,-0724,0826,12264,030.2,045.5,0.472,731.9,01.19,0.508
2014-08-29 00:56:00,1705E-3,5C000000,-0724,0826,12148,030.2,045.5,0.472,731.8,01.19,0.508
2014-08-29 00:57:00,1836E-3,5C000000,-0724,0826,12212,030.2,045.5,0.472,731.9,01.19,0.508
2014-08-29 00:58:00,1762E-3,5C000000,-0724,0826,12102,030.2,045.5,0.473,731.9,01.19,0.508
2014-08-29 00:59:00,1865E-3,5C000000,-0724,0826,12207,030.2,045.5,0.473,731.8,01.19,0.508
2014-08-29 01:00:00,1696E-3,5C000000,-0724,0826,12120,030.2,045.6,0.472,731.8,01.19,0.508
2014-08-29 01:01:00,1805E-3,5C000000,-0724,0826,12415,030.2,045.6,0.472,731.8,01.19,0.508
2014-08-29 01:02:00,1848E-3,5C000000,-0724,0825,12218,030.2,045.6,0.472,731.8,01.19,0.508
2014-08-29 01:03:00,1710E-3,5C000000,-0724,0826,12127,030.2,045.5,0.472,731.8,01.19,0.508
2014-08-29 01:04:00,1706E-3,5C000000,-0724,0825,12143,030.2,045.6,0.473,731.8,01.19,0.508
2014-08-29 01:05:00,1792E-3,5C000000,-0724,0826,12394,030.2,045.6,0.473,731.8,01.19,0.508
2014-08-29 01:06:00,1939E-3,5C000000,-0724,0826,12241,030.2,045.5,0.472,731.8,01.19,0.508
2014-08-29 01:07:00,1737E-3,5C000000,-0724,0826,12322,030.2,045.5,0.472,731.7,01.19,0.508
2014-08-29 01:08:00,1790E-3,5C000000,-0724,0826,12320,030.2,045.5,0.472,731.6,01.19,0.508
2014-08-29 01:09:00,1849E-3,5C000000,-0724,0826,12341,030.2,045.5,0.473,731.8,01.19,0.508
2014-08-29 01:10:00,1804E-3,5C000000,-0724,0826,12173,030.2,045.5,0.473,731.8,01.19,0.508
2014-08-29 01:11:00,1853E-3,5C000000,-0724,0825,12271,030.2,045.5,0.472,731.7,01.19,0.508
2014-08-29 01:12:00,1799E-3,5C000000,-0724,0826,12398,030.2,045.5,0.472,731.6,01.19,0.508
2014-08-29 01:13:00,1708E-3,5C000000,-0724,0826,12300,030.2,045.5,0.472,731.7,01.19,0.508
2014-08-29 01:14:00,1696E-3,5C000000,-0724,0826,12259,030.2,045.5,0.473,731.7,01.19,0.508
2014-08-29 01:15:00,1815E-3,5C000000,-0724,0825,12246,030.2,045.5,0.473,731.6,01.19,0.508
2014-08-29 01:16:00,1701E-3,5C000000,-0724,0826,12348,030.2,045.5,0.472,731.4,01.19,0.508
2014-08-29 01:17:00,1992E-3,5C000000,-0724,0826,12302,030.2,045.5,0.472,731.6,01.19,0.508
2014-08-29 01:18:00,1737E-3,5C000000,-0724,0826,12099,030.2,045.6,0.472,731.3,01.19,0.508
2014-08-29 01:19:00,1789E-3,5C000000,-0724,0826,12354,030.2,045.6,0.472,731.4,01.19,0.508
2014-08-29 01:20:00,1654E-3,5C000000,-0724,0826,12133,030.2,045.6,0.473,731.5,01.19,0.508
2014-08-29 01:21:00,1863E-3,5C000000,-0724,0826,12063,030.2,045.6,0.472,731.4,01.19,0.508
2014-08-29 01:22:00,1833E-3,5C000000,-0724,0826,12197,030.2,045.5,0.472,731.4,01.19,0.508
2014-08-29 01:23:00,1682E-3,5C000000,-0724,0826,12383,030.2,045.5,0.472,731.5,01.19,0.508
2014-08-29 01:24:00,1718E-3,5C000000,-0724,0827,12149,030.2,045.5,0.472,731.6,01.19,0.508
2014-08-29 01:25:00,1818E-3,5C000000,-0724,0826,11977,030.2,045.5,0.473,731.5,01.19,0.508
2014-08-29 01:26:00,1870E-3,5C000000,-0724,0827,12116,030.2,045.5,0.472,731.4,01.19,0.508
2014-08-29 01:27:00,1903E-3,5C000000,-0724,0826,12290,030.1,045.5,0.472,731.3,01.19,0.508
2014-08-29 01:28:00,1728E-3,5C000000,-0724,0826,12227,030.2,045.6,0.472,731.4,01.19,0.508
2014-08-29 01:29:00,1873E-3,5C000000,-0724,0826,12317,030.2,045.5,0.473,731.4,01.19,0.508
2014-08-29 01:30:00,1751E-3,5C000000,-0724,0826,12164,030.2,045.5,0.473,731.4,01.19,0.508
2014-08-29 01:31:00,1635E-3,5C000000,-0724,0826,12102,030.2,045.5,0.472,731.6,01.19,0.508
2014-08-29 01:32:00,1788E-3,5C000000,-0724,0826,12350,030.1,045.5,0.472,731.5,01.19,0.508
2014-08-29 01:33:00,1783E-3,5C000000,-0724,0826,12143,030.2,045.5,0.472,731.4,01.19,0.508
2014-08-29 01:34:00,1761E-3,5C000000,-0724,0826,12284,030.1,045.6,0.473,731.3,01.19,0.508
2014-08-29 01:35:00,1814E-3,5C000000,-0724,0826,12239,030.2,045.5,0.472,731.5,01.19,0.508
2014-08-29 01:36:00,2032E-3,5C000000,-0724,0826,12280,030.2,045.6,0.472,731.4,01.19,0.508
2014-08-29 01:37:00,1880E-3,5C000000,-0724,0826,12283,030.2,045.5,0.472,731.5,01.19,0.508
2014-08-29 01:38:00,1745E-3,5C000000,-0724,0826,12170,030.1,045.6,0.473,731.2,01.19,0.508
2014-08-29 01:39:00,1807E-3,5C000000,-0724,0826,11969,030.1,045.6,0.472,731.3,01.19,0.508
2014-08-29 01:40:00,1820E-3,5C000000,-0724,0825,12399,030.1,045.5,0.472,731.6,01.19,0.508
2014-08-29 01:41:00,1916E-3,5C000000,-0724,0826,12369,030.2,045.6,0.472,731.4,01.19,0.508
2014-08-29 01:42:00,1809E-3,5C000000,-0724,0825,12173,030.1,045.5,0.473,731.6,01.19,0.508
2014-08-29 01:43:00,1736E-3,5C000000,-0724,0825,12242,030.1,045.5,0.473,731.6,01.19,0.508
2014-08-29 01:44:00,1880E-3,5C000000,-0724,0825,12246,030.1,045.6,0.472,731.6,01.19,0.508
2014-08-29 01:45:00,1789E-3,5C000000,-0724,0826,12202,030.1,045.6,0.472,731.5,01.19,0.508
2014-08-29 01:46:00,1856E-3,5C000000,-0724,0826,12252,030.1,045.6,0.472,731.5,01.19,0.508
2014-08-29 01:47:00,1706E-3,5C000000,-0724,0826,12289,030.1,045.6,0.473,731.7,01.19,0.508
2014-08-29 01:48:00,1776E-3,5C000000,-0724,0826,12295,030.1,045.5,0.472,731.5,01.19,0.508
2014-08-29 01:49:00,1787E-3,5C000000,-0724,0826,12291,030.1,045.5,0.472,731.6,01.19,0.508
2014-08-29 01:50:00,1763E-3,5C000000,-0724,0826,12169,030.1,045.5,0.472,731.7,01.19,0.508
2014-08-29 01:51:00,1831E-3,5C000000,-0724,0826,12349,030.1,045.6,0.473,731.6,01.19,0.508
2014-08-29 01:52:00,1838E-3,5C000000,-0724,0825,12097,030.2,045.6,0.472,731.5,01.19,0.508
2014-08-29 01:53:00,1667E-3,5C000000,-0724,0826,12211,030.1,045.6,0.472,731.5,01.19,0.508
2014-08-29 01:54:00,1744E-3,5C000000,-0724,0826,12341,030.1,045.6,0.472,731.8,01.19,0.508
2014-08-29 01:55:00,1863E-3,5C000000,-0724,0825,12080,030.1,045.5,0.473,731.9,01.19,0.508
2014-08-29 01:56:00,1868E-3,5C000000,-0724,0827,12307,030.2,045.5,0.473,731.8,01.19,0.508
2014-08-29 01:57:00,1800E-3,5C000000,-0724,0826,12255,030.2,045.5,0.472,732.0,01.19,0.508
2014-08-29 01:58:00,1913E-3,5C000000,-0724,0826,12026,030.2,045.5,0.472,732.0,01.19,0.508
2014-08-29 01:59:00,1849E-3,5C000000,-0724,0826,12321,030.2,045.5,0.473,732.0,01.19,0.508
2014-08-29 02:00:00,1792E-3,5C000000,-0724,0825,12260,030.2,045.5,0.473,732.0,01.19,0.508
2014-08-29 02:01:00,1738E-3,5C000000,-0724,0826,12182,030.2,045.5,0.473,732.2,01.19,0.508
2014-08-29 02:02:00,1881E-3,5C000000,-0724,0826,12339,030.2,045.5,0.472,732.2,01.19,0.508
2014-08-29 02:03:00,1874E-3,5C000000,-0724,0826,12239,030.2,045.5,0.472,732.3,01.19,0.508
2014-08-29 02:04:00,1744E-3,5C000000,-0724,0826,12186,030.2,045.5,0.473,732.3,01.19,0.508
2014-08-29 02:05:00,1642E-3,5C000000,-0724,0826,12197,030.2,045.6,0.473,732.2,01.19,0.508
2014-08-29 02:06:00,1751E-3,5C000000,-0724,0827,12143,030.2,045.5,0.473,732.3,01.19,0.508
2014-08-29 02:07:00,1866E-3,5C000000,-0724,0826,12240,030.2,045.5,0.472,732.2,01.19,0.508
2014-08-29 02:08:00,1839E-3,5C000000,-0724,0826,12174,030.2,045.5,0.472,732.1,01.19,0.508
2014-08-29 02:09:00,1805E-3,5C000000,-0724,0826,12234,030.2,045.6,0.472,732.2,01.19,0.508
2014-08-29 02:10:00,1746E-3,5C000000,-0724,0825,12347,030.2,045.6,0.473,732.1,01.19,0.508
2014-08-29 02:11:00,1801E-3,5C000000,-0724,0826,12272,030.2,045.6,0.473,732.2,01.19,0.508
2014-08-29 02:12:00,1599E-3,5C000000,-0724,0826,12169,030.2,045.5,0.473,732.2,01.19,0.508
2014-08-29 02:13:00,1822E-3,5C000000,-0724,0827,12296,030.2,045.6,0.472,732.1,01.19,0.508
2014-08-29 02:14:00,1788E-3,5C000000,-0724,0825,12117,030.2,045.6,0.472,732.3,01.19,0.508
2014-08-29 02:15:00,1698E-3,5C000000,-0724,0827,12338,030.2,045.5,0.472,732.2,01.19,0.508
2014-08-29 02:16:00,1779E-3,5C000000,-0724,0826,12319,030.2,045.5,0.473,732.2,01.19,0.508
2014-08-29 02:17:00,1607E-3,5C000000,-0724,0825,12024,030.2,045.6,0.473,732.2,01.19,0.508
2014-08-29 02:18:00,1816E-3,5C000000,-0724,0826,12151,030.2,045.5,0.473,732.1,01.19,0.508
2014-08-29 02:19:00,1812E-3,5C000000,-0724,0826,12154,030.2,045.6,0.472,732.1,01.19,0.508
2014-08-29 02:20:00,1754E-3,5C000000,-0724,0826,12214,030.2,045.5,0.472,732.2,01.19,0.508
2014-08-29 02:21:00,1774E-3,5C000000,-0724,0826,12230,030.2,045.5,0.473,732.2,01.19,0.508
2014-08-29 02:22:00,1801E-3,5C000000,-0724,0825,12223,030.2,045.5,0.473,732.2,01.19,0.508
2014-08-29 02:23:00,1849E-3,5C000000,-0724,0826,12054,030.2,045.5,0.473,732.3,01.19,0.508
2014-08-29 02:24:00,1785E-3,5C000000,-0724,0827,12172,030.2,045.6,0.472,732.3,01.19,0.508
2014-08-29 02:25:00,1935E-3,5C000000,-0724,0827,11960,030.2,045.6,0.472,732.2,01.19,0.508
2014-08-29 02:26:00,1775E-3,5C000000,-0724,0825,12143,030.2,045.6,0.472,732.2,01.19,0.508
2014-08-29 02:27:00,1757E-3,5C000000,-0724,0826,12180,030.2,045.6,0.473,732.0,01.19,0.508
2014-08-29 02:28:00,1781E-3,5C000000,-0724,0826,12202,030.3,045.6,0.473,732.3,01.19,0.508
2014-08-29 02:29:00,1799E-3,5C000000,-0724,0826,12373,030.2,045.5,0.473,732.2,01.19,0.508
2014-08-29 02:30:00,1834E-3,5C000000,-0724,0826,12271,030.2,045.5,0.472,732.3,01.19,0.508
2014-08-29 02:31:00,1686E-3,5C000000,-0724,0827,12481,030.2,045.5,0.472,732.3,01.19,0.508
2014-08-29 02:32:00,1912E-3,5C000000,-0724,0826,12242,030.2,045.5,0.472,732.3,01.19,0.508
2014-08-29 02:33:00,1682E-3,5C000000,-0724,0826,12125,030.2,045.5,0.473,732.2,01.19,0.508
2014-08-29 02:34:00,1797E-3,5C000000,-0724,0827,12203,030.2,045.5,0.473,732.2,01.19,0.508
2014-08-29 02:35:00,1857E-3,5C000000,-0724,0827,12381,030.2,045.5,0.473,732.2,01.19,0.508
2014-08-29 02:36:00,1837E-3,5C000000,-0724,0825,12291,030.2,045.6,0.472,732.2,01.19,0.508
2014-08-29 02:37:00,1835E-3,5C000000,-0724,0827,12093,030.3,045.5,0.472,732.2,01.19,0.508
2014-08-29 02:38:00,1740E-3,5C000000,-0724,0827,12288,030.2,045.6,0.473,732.2,01.19,0.508
2014-08-29 02:39:00,1847E-3,5C000000,-0724,0826,12285,030.2,045.6,0.473,732.3,01.19,0.508
2014-08-29 02:40:00,1759E-3,5C000000,-0724,0827,12130,030.3,045.6,0.473,732.3,01.19,0.508
2014-08-29 02:41:00,1711E-3,5C000000,-0724,0827,12148,030.3,045.5,0.472,732.2,01.19,0.508
2014-08-29 02:42:00,1736E-3,5C000000,-0724,0826,12239,030.3,045.5,0.472,732.2,01.19,0.508
2014-08-29 02:43:00,1735E-3,5C000000,-0724,0826,12410,030.3,045.5,0.472,732.2,01.19,0.508
2014-08-29 02:44:00,1900E-3,5C000000,-0724,0826,12145,030.3,045.5,0.473,732.2,01.19,0.508
2014-08-29 02:45:00,1714E-3,5C000000,-0724,0827,11993,030.3,045.6,0.473,732.1,01.19,0.508
2014-08-29 02:46:00,1736E-3,5C000000,-0724,0826,12249,030.3,045.6,0.472,732.2,01.19,0.508
2014-08-29 02:47:00,1667E-3,5C000000,-0724,0827,12214,030.3,045.5,0.472,732.2,01.19,0.508
2014-08-29 02:48:00,1799E-3,5C000000,-0724,0826,12292,030.3,045.5,0.472,732.3,01.19,0.508
2014-08-29 02:49:00,1794E-3,5C000000,-0724,0827,12329,030.3,045.6,0.472,732.3,01.19,0.508
2014-08-29 02:50:00,1837E-3,5C000000,-0724,0825,12130,030.3,045.5,0.473,732.3,01.19,0.508
2014-08-29 02:51:00,1889E-3,5C000000,-0724,0826,12177,030.3,045.6,0.473,732.1,01.19,0.508
2014-08-29 02:52:00,1798E-3,5C000000,-0724,0826,12347,030.3,045.5,0.472,732.2,01.19,0.508
2014-08-29 02:53:00,1815E-3,5C000000,-0724,0827,12181,030.3,045.5,0.472,732.2,01.19,0.508
2014-08-29 02:54:00,1902E-3,5C000000,-0724,0826,12123,030.3,045.5,0.472,732.2,01.19,0.508
2014-08-29 02:55:00,1870E-3,5C000000,-0724,0827,12096,030.3,045.5,0.472,732.2,01.19,0.508
2014-08-29 02:56:00,1749E-3,5C000000,-0724,0827,12169,030.3,045.6,0.473,732.3,01.19,0.508
2014-08-29 02:57:00,1782E-3,5C000000,-0724,0826,12329,030.3,045.6,0.473,732.3,01.19,0.508
2014-08-29 02:58:00,1796E-3,5C000000,-0724,0826,12107,030.3,045.5,0.472,732.4,01.19,0.508
2014-08-29 02:59:00,1708E-3,5C000000,-0724,0825,12182,030.3,045.6,0.472,732.1,01.19,0.508
2014-08-29 03:00:00,1817E-3,5C000000,-0724,0827,12319,030.3,045.6,0.472,732.3,01.19,0.508
2014-08-29 03:01:00,1801E-3,5C000000,-0724,0826,12305,030.3,045.5,0.473,732.2,01.19,0.508
2014-08-29 03:02:00,1732E-3,5C000000,-0724,0826,12108,030.3,045.5,0.473,732.3,01.19,0.508
2014-08-29 03:03:00,1737E-3,5C000000,-0724,0826,12269,030.3,045.6,0.472,732.2,01.19,0.508
2014-08-29 03:04:00,1715E-3,5C000000,-0724,0827,12141,030.3,045.6,0.472,732.2,01.19,0.508
2014-08-29 03:05:00,1918E-3,5C000000,-0724,0826,12267,030.3,045.6,0.472,732.2,01.19,0.508
2014-08-29 03:06:00,1806E-3,5C000000,-0724,0826,12273,030.3,045.6,0.472,732.3,01.19,0.508
2014-08-29 03:07:00,1846E-3,5C000000,-0724,0827,12205,030.3,045.6,0.473,732.3,01.19,0.508
2014-08-29 03:08:00,1848E-3,5C000000,-0724,0826,12353,030.3,045.6,0.473,732.4,01.19,0.508
2014-08-29 03:09:00,1689E-3,5C000000,-0724,0826,12345,030.4,045.5,0.472,732.4,01.19,0.508
2014-08-29 03:10:00,1875E-3,5C000000,-0724,0826,12409,030.4,045.5,0.473,732.4,01.19,0.508
2014-08-29 03:11:00,1965E-3,5C000000,-0724,0827,12147,030.3,045.6,0.472,732.4,01.19,0.508
2014-08-29 03:12:00,1818E-3,5C000000,-0724,0826,12344,030.4,045.6,0.472,732.5,01.19,0.508
2014-08-29 03:13:00,1798E-3,5C000000,-0724,0826,12238,030.3,045.6,0.472,732.3,01.19,0.508
2014-08-29 03:14:00,1807E-3,5C000000,-0724,0827,12216,030.4,045.6,0.472,732.4,01.19,0.508
2014-08-29 03:15:00,1769E-3,5C000000,-0724,0826,12236,030.4,045.6,0.472,732.4,01.19,0.508
2014-08-29 03:16:00,1796E-3,5C000000,-0724,0826,12369,030.3,045.6,0.473,732.3,01.19,0.508
2014-08-29 03:17:00,1791E-3,5C000000,-0724,0826,12220,030.3,045.6,0.473,732.3,01.19,0.508
2014-08-29 03:18:00,1681E-3,5C000000,-0724,0825,12280,030.4,045.5,0.472,732.3,01.19,0.508
2014-08-29 03:19:00,1737E-3,5C000000,-0724,0826,12214,030.4,045.5,0.472,732.5,01.19,0.508
2014-08-29 03:20:00,1931E-3,5C000000,-0724,0826,12286,030.3,045.6,0.472,732.5,01.19,0.508
2014-08-29 03:21:00,1833E-3,5C000000,-0724,0826,12281,030.4,045.6,0.472,732.3,01.19,0.508
2014-08-29 03:22:00,1731E-3,5C000000,-0724,0826,12237,030.4,045.5,0.472,732.5,01.19,0.508
2014-08-29 03:23:00,1851E-3,5C000000,-0724,0826,12363,030.4,045.5,0.473,732.4,01.19,0.508
2014-08-29 03:24:00,1795E-3,5C000000,-0724,0828,12162,030.4,045.5,0.473,732.5,01.19,0.508
2014-08-29 03:25:00,1673E-3,5C000000,-0724,0827,12261,030.4,045.5,0.472,732.2,01.19,0.508
2014-08-29 03:26:00,1784E-3,5C000000,-0724,0827,12258,030.4,045.5,0.472,732.5,01.19,0.508
2014-08-29 03:27:00,1702E-3,5C000000,-0724,0826,12228,030.4,045.6,0.472,732.5,01.19,0.508
2014-08-29 03:28:00,1785E-3,5C000000,-0724,0826,12216,030.4,045.6,0.472,732.5,01.19,0.508
2014-08-29 03:29:00,1824E-3,5C000000,-0724,0826,12309,030.4,045.6,0.472,732.6,01.19,0.508
2014-08-29 03:30:00,1869E-3,5C000000,-0724,0826,12140,030.4,045.5,0.473,732.7,01.19,0.508
2014-08-29 03:31:00,1849E-3,5C000000,-0724,0826,12219,030.4,045.6,0.473,732.6,01.19,0.508
2014-08-29 03:32:00,1693E-3,5C000000,-0724,0827,12222,030.4,045.6,0.473,732.6,01.19,0.508
2014-08-29 03:33:00,1703E-3,5C000000,-0724,0826,12254,030.4,045.5,0.472,732.6,01.19,0.508
2014-08-29 03:34:00,1648E-3,5C000000,-0724,0826,12303,030.4,045.5,0.472,732.6,01.19,0.508
2014-08-29 03:35:00,1820E-3,5C000000,-0724,0826,12132,030.3,045.6,0.472,732.7,01.19,0.508
2014-08-29 03:36:00,1769E-3,5C000000,-0724,0827,12290,030.4,045.6,0.472,732.7,01.19,0.508
2014-08-29 03:37:00,1785E-3,5C000000,-0724,0826,12133,030.4,045.6,0.473,732.6,01.19,0.508
2014-08-29 03:38:00,1877E-3,5C000000,-0724,0827,12133,030.4,045.6,0.473,732.4,01.19,0.508
2014-08-29 03:39:00,1769E-3,5C000000,-0724,0826,12213,030.4,045.5,0.473,732.6,01.19,0.508
2014-08-29 03:40:00,1693E-3,5C000000,-0724,0826,12162,030.4,045.5,0.472,732.5,01.19,0.508
2014-08-29 03:41:00,1724E-3,5C000000,-0724,0826,12218,030.4,045.5,0.472,732.8,01.19,0.508
2014-08-29 03:42:00,1723E-3,5C000000,-0724,0826,12106,030.4,045.6,0.472,732.7,01.19,0.508
2014-08-29 03:43:00,1614E-3,5C000000,-0724,0827,11987,030.4,045.6,0.472,732.6,01.19,0.508
2014-08-29 03:44:00,1797E-3,5C000000,-0724,0827,12179,030.4,045.5,0.472,732.4,01.19,0.508
2014-08-29 03:45:00,1900E-3,5C000000,-0724,0826,12196,030.3,045.5,0.473,732.5,01.19,0.508
2014-08-29 03:46:00,1780E-3,5C000000,-0724,0827,12077,030.4,045.5,0.473,732.6,01.19,0.508
2014-08-29 03:47:00,1741E-3,5C000000,-0724,0827,12328,030.4,045.6,0.473,732.5,01.19,0.508
2014-08-29 03:48:00,1744E-3,5C000000,-0724,0826,12129,030.4,045.6,0.472,732.7,01.19,0.508
2014-08-29 03:49:00,1821E-3,5C000000,-0724,0827,12302,030.3,045.6,0.472,732.8,01.19,0.508
2014-08-29 03:50:00,1849E-3,5C000000,-0724,0825,12053,030.3,045.6,0.472,732.6,01.19,0.508
2014-08-29 03:51:00,1897E-3,5C000000,-0724,0826,12293,030.3,045.6,0.472,732.6,01.19,0.508
2014-08-29 03:52:00,1825E-3,5C000000,-0724,0827,12388,030.3,045.6,0.473,732.4,01.19,0.508
2014-08-29 03:53:00,1858E-3,5C000000,-0724,0826,12149,030.3,045.6,0.473,732.6,01.19,0.508
2014-08-29 03:54:00,1752E-3,5C000000,-0724,0827,12264,030.4,045.6,0.473,732.6,01.19,0.508
2014-08-29 03:55:00,1731E-3,5C000000,-0724,0826,12250,030.3,045.5,0.472,732.4,01.19,0.508
2014-08-29 03:56:00,1915E-3,5C000000,-0724,0827,12078,030.4,045.5,0.472,732.7,01.19,0.508
2014-08-29 03:57:00,1797E-3,5C000000,-0724,0826,12045,030.3,045.6,0.472,732.8,01.19,0.508
2014-08-29 03:58:00,1829E-3,5C000000,-0724,0827,12375,030.3,045.5,0.472,732.7,01.19,0.508
2014-08-29 03:59:00,1659E-3,5C000000,-0724,0827,12326,030.3,045.5,0.473,732.7,01.19,0.508
2014-08-29 04:00:00,1763E-3,5C000000,-0724,0826,12286,030.3,045.5,0.473,732.8,01.19,0.508
2014-08-29 04:01:00,1783E-3,5C000000,-0724,0826,12317,030.3,045.5,0.473,732.8,01.19,0.508
2014-08-29 04:02:00,1750E-3,5C000000,-0724,0827,12272,030.3,045.5,0.473,732.8,01.19,0.508
2014-08-29 04:03:00,1751E-3,5C000000,-0724,0826,12198,030.3,045.6,0.472,732.7,01.19,0.508
2014-08-29 04:04:00,1723E-3,5C000000,-0724,0826,12320,030.3,045.6,0.472,732.7,01.19,0.508
2014-08-29 04:05:00,1776E-3,5C000000,-0724,0826,12223,030.3,045.5,0.472,732.7,01.19,0.508
2014-08-29 04:06:00,1936E-3,5C000000,-0724,0826,12193,030.3,045.6,0.473,732.7,01.19,0.508
2014-08-29 04:07:00,1832E-3,5C000000,-0724,0827,12121,030.3,045.6,0.473,732.7,01.19,0.508
2014-08-29 04:08:00,1788E-3,5C000000,-0724,0826,12299,030.3,045.5,0.473,732.7,01.19,0.508
2014-08-29 04:09:00,1822E-3,5C000000,-0724,0826,12262,030.3,045.5,0.473,732.7,01.19,0.508
2014-08-29 04:10:00,1740E-3,5C000000,-0724,0827,12140,030.3,045.5,0.472,732.5,01.19,0.508
2014-08-29 04:11:00,1864E-3,5C000000,-0724,0826,12353,030.3,045.6,0.472,732.7,01.19,0.508
2014-08-29 04:12:00,1740E-3,5C000000,-0724,0826,12190,030.3,045.5,0.473,732.6,01.19,0.508
2014-08-29 04:13:00,1741E-3,5C000000,-0724,0827,12288,030.3,045.5,0.473,732.3,01.19,0.508
2014-08-29 04:14:00,1750E-3,5C000000,-0724,0826,12260,030.3,045.6,0.473,732.4,01.19,0.508
2014-08-29 04:15:00,1771E-3,5C000000,-0724,0827,12137,030.3,045.6,0.473,732.4,01.19,0.508
2014-08-29 04:16:00,1833E-3,5C000000,-0724,0825,12347,030.3,045.6,0.472,732.0,01.19,0.508
2014-08-29 04:17:00,1792E-3,5C000000,-0724,0826,12299,030.3,045.5,0.472,732.5,01.19,0.508
2014-08-29 04:18:00,1808E-3,5C000000,-0724,0827,12518,030.3,045.6,0.472,732.3,01.19,0.508
2014-08-29 04:19:00,1739E-3,5C000000,-0724,0826,12321,030.3,045.5,0.473,732.4,01.19,0.508
2014-08-29 04:20:00,1811E-3,5C000000,-0724,0827,12214,030.3,045.5,0.473,732.4,01.19,0.508